LAN113 SCAT-SCEL

Flight info

Callsign LAN113
Flight time 1h 5m
Altitude 39000
Route MORM3J MORMI UQ803 SIMOK SIMO7B
Aircraft A20N/M-SDE2E3FGHIJ1J2J3J5M1RWXYZ/EB1

Departure

Time 2026-05-09 15:32
Airport Desierto de Atacama Airport (SCAT)

Arrival

Time 2026-05-09 16:37
Airport Comodoro Arturo Merino Benítez International Airport (SCEL)
Time Latitude Longitude Altitude Speed Heading
2026-05-09 15:07 -27.26446 -70.77514 664 ft 0 kts 87°
2026-05-09 15:23 -27.26446 -70.77518 661 ft 2 kts 87°
2026-05-09 15:24 -27.26447 -70.77533 664 ft 3 kts 85°
2026-05-09 15:24 -27.26448 -70.77555 661 ft 3 kts 85°
2026-05-09 15:24 -27.26451 -70.77578 662 ft 3 kts 62°
2026-05-09 15:24 -27.26468 -70.77598 658 ft 4 kts 18°
2026-05-09 15:25 -27.26485 -70.77601 662 ft 0 kts 356°
2026-05-09 15:28 -27.26475 -70.77601 662 ft 4 kts 356°
2026-05-09 15:28 -27.26415 -70.77606 661 ft 13 kts 355°
2026-05-09 15:28 -27.26296 -70.77618 658 ft 21 kts 355°
2026-05-09 15:29 -27.26139 -70.77632 655 ft 21 kts 355°
2026-05-09 15:29 -27.26063 -70.77715 652 ft 17 kts 258°
2026-05-09 15:29 -27.26073 -70.77855 652 ft 19 kts 265°
2026-05-09 15:29 -27.25987 -70.77942 649 ft 21 kts 356°
2026-05-09 15:30 -27.25829 -70.77953 646 ft 25 kts 356°
2026-05-09 15:30 -27.25651 -70.77969 643 ft 28 kts 355°
2026-05-09 15:30 -27.25446 -70.77987 638 ft 31 kts 355°
2026-05-09 15:30 -27.25231 -70.77981 637 ft 28 kts 32°
2026-05-09 15:31 -27.25163 -70.77971 638 ft 6 kts 293°
2026-05-09 15:31 -27.25199 -70.78008 629 ft 7 kts 173°
2026-05-09 15:31 -27.25207 -70.78007 637 ft 0 kts 176°
2026-05-09 15:32 -27.25262 -70.78003 635 ft 27 kts 175°
2026-05-09 15:32 -27.25708 -70.77961 645 ft 100 kts 175°
2026-05-09 15:32 -27.26611 -70.77882 678 ft 154 kts 175°
2026-05-09 15:32 -27.27685 -70.77790 1299 ft 154 kts 175°
2026-05-09 15:33 -27.28736 -70.77698 2064 ft 152 kts 175°
2026-05-09 15:33 -27.29817 -70.77599 2658 ft 162 kts 175°
2026-05-09 15:33 -27.31002 -70.77492 3066 ft 183 kts 175°
2026-05-09 15:33 -27.32356 -70.77349 3522 ft 205 kts 171°
2026-05-09 15:34 -27.33842 -70.77020 3984 ft 230 kts 168°
2026-05-09 15:34 -27.35485 -70.76650 4541 ft 253 kts 168°
2026-05-09 15:34 -27.37301 -70.76244 5127 ft 275 kts 168°
2026-05-09 15:34 -27.39199 -70.75825 5959 ft 283 kts 168°
2026-05-09 15:35 -27.41170 -70.75392 6817 ft 289 kts 168°
2026-05-09 15:35 -27.43129 -70.74960 7744 ft 289 kts 168°
2026-05-09 15:35 -27.45118 -70.74521 8675 ft 291 kts 169°
2026-05-09 15:35 -27.47129 -70.74076 9551 ft 295 kts 169°
2026-05-09 15:36 -27.49137 -70.73631 10352 ft 301 kts 169°
2026-05-09 15:36 -27.51268 -70.73160 10754 ft 321 kts 169°
2026-05-09 15:36 -27.53513 -70.72664 11069 ft 341 kts 170°
2026-05-09 15:36 -27.55859 -70.72144 11844 ft 343 kts 170°
2026-05-09 15:37 -27.58216 -70.71619 12777 ft 342 kts 171°
2026-05-09 15:37 -27.60536 -70.71101 13653 ft 343 kts 171°
2026-05-09 15:37 -27.62892 -70.70575 14412 ft 345 kts 172°
2026-05-09 15:37 -27.65238 -70.70054 15129 ft 346 kts 172°
2026-05-09 15:38 -27.67592 -70.69532 15825 ft 348 kts 172°
2026-05-09 15:38 -27.70002 -70.69019 16554 ft 350 kts 173°
2026-05-09 15:38 -27.72420 -70.68576 17278 ft 351 kts 174°
2026-05-09 15:38 -27.74823 -70.68158 17982 ft 353 kts 174°
2026-05-09 15:39 -27.77243 -70.67736 18626 ft 355 kts 174°
2026-05-09 15:39 -27.79719 -70.67296 19194 ft 358 kts 174°
2026-05-09 15:39 -27.82170 -70.66855 19764 ft 360 kts 174°
2026-05-09 15:39 -27.84674 -70.66400 20337 ft 363 kts 174°
2026-05-09 15:40 -27.87162 -70.65947 20894 ft 365 kts 174°
2026-05-09 15:40 -27.89673 -70.65489 21462 ft 368 kts 174°
2026-05-09 15:40 -27.92230 -70.65022 22020 ft 371 kts 174°
2026-05-09 15:40 -27.94764 -70.64559 22565 ft 373 kts 175°
2026-05-09 15:41 -27.97358 -70.64085 23117 ft 376 kts 175°
2026-05-09 15:41 -27.99932 -70.63615 23629 ft 379 kts 175°
2026-05-09 15:41 -28.02543 -70.63138 24078 ft 381 kts 175°
2026-05-09 15:41 -28.05157 -70.62659 24582 ft 382 kts 175°
2026-05-09 15:42 -28.07811 -70.62173 25044 ft 385 kts 175°
2026-05-09 15:42 -28.10443 -70.61661 25498 ft 387 kts 174°
2026-05-09 15:42 -28.13126 -70.61112 25935 ft 390 kts 174°
2026-05-09 15:42 -28.15787 -70.60564 26376 ft 392 kts 174°
2026-05-09 15:43 -28.18460 -70.60015 26803 ft 394 kts 174°
2026-05-09 15:43 -28.21185 -70.59459 27236 ft 396 kts 174°
2026-05-09 15:43 -28.23918 -70.58904 27659 ft 399 kts 174°
2026-05-09 15:43 -28.26634 -70.58354 28055 ft 401 kts 174°
2026-05-09 15:44 -28.29407 -70.57792 28452 ft 404 kts 174°
2026-05-09 15:44 -28.32173 -70.57230 28850 ft 406 kts 174°
2026-05-09 15:44 -28.34942 -70.56668 29234 ft 408 kts 174°
2026-05-09 15:44 -28.37768 -70.56095 29618 ft 410 kts 174°
2026-05-09 15:45 -28.40608 -70.55518 29941 ft 413 kts 174°
2026-05-09 15:45 -28.43430 -70.54944 30313 ft 414 kts 174°
2026-05-09 15:45 -28.46254 -70.54370 30567 ft 417 kts 174°
2026-05-09 15:45 -28.49132 -70.53949 30965 ft 414 kts 180°
2026-05-09 15:46 -28.51986 -70.53858 31369 ft 411 kts 185°
2026-05-09 15:46 -28.54841 -70.54067 31796 ft 409 kts 188°
2026-05-09 15:46 -28.57653 -70.54339 32227 ft 407 kts 187°
2026-05-09 15:46 -28.60470 -70.54598 32654 ft 406 kts 187°
2026-05-09 15:47 -28.63304 -70.54858 33086 ft 405 kts 187°
2026-05-09 15:47 -28.66089 -70.55114 33513 ft 404 kts 187°
2026-05-09 15:47 -28.68896 -70.55376 33895 ft 402 kts 187°
2026-05-09 15:47 -28.71656 -70.55635 34224 ft 401 kts 187°
2026-05-09 15:48 -28.74433 -70.55896 34502 ft 400 kts 187°
2026-05-09 15:48 -28.77230 -70.56160 34744 ft 400 kts 187°
2026-05-09 15:48 -28.79993 -70.56420 35010 ft 400 kts 187°
2026-05-09 15:48 -28.82776 -70.56682 35260 ft 399 kts 187°
2026-05-09 15:49 -28.85515 -70.56939 35517 ft 398 kts 187°
2026-05-09 15:49 -28.88284 -70.57199 35774 ft 398 kts 187°
2026-05-09 15:49 -28.91043 -70.57458 36134 ft 395 kts 187°
2026-05-09 15:49 -28.93784 -70.57717 36408 ft 394 kts 187°
2026-05-09 15:50 -28.96493 -70.57978 36670 ft 393 kts 187°
2026-05-09 15:50 -28.99239 -70.58245 36949 ft 392 kts 187°
2026-05-09 15:50 -29.01937 -70.58507 37217 ft 391 kts 187°
2026-05-09 15:50 -29.04635 -70.58769 37447 ft 391 kts 187°
2026-05-09 15:51 -29.07360 -70.59032 37676 ft 390 kts 187°
2026-05-09 15:51 -29.10076 -70.59295 37898 ft 389 kts 187°
2026-05-09 15:51 -29.12746 -70.59553 38098 ft 389 kts 187°
2026-05-09 15:51 -29.15449 -70.59815 38350 ft 388 kts 187°
2026-05-09 15:52 -29.20827 -70.60337 38686 ft 387 kts 187°
2026-05-09 15:52 -29.23479 -70.60593 38911 ft 385 kts 187°
2026-05-09 15:52 -29.26165 -70.60853 39046 ft 385 kts 187°
2026-05-09 15:53 -29.28811 -70.61111 39052 ft 385 kts 187°
2026-05-09 15:53 -29.34134 -70.61629 39054 ft 383 kts 187°
2026-05-09 15:54 -29.39460 -70.62147 39054 ft 384 kts 187°
2026-05-09 15:54 -29.44784 -70.62665 39054 ft 382 kts 187°
2026-05-09 15:55 -29.50067 -70.63181 39046 ft 383 kts 187°
2026-05-09 15:55 -29.55392 -70.63701 39054 ft 384 kts 187°
2026-05-09 15:56 -29.60714 -70.64220 39054 ft 382 kts 187°
2026-05-09 15:56 -29.65992 -70.64736 39052 ft 383 kts 187°
2026-05-09 15:57 -29.71314 -70.65257 39041 ft 380 kts 187°
2026-05-09 15:57 -29.76583 -70.65773 39040 ft 381 kts 186°
2026-05-09 15:58 -29.81864 -70.66291 39034 ft 382 kts 186°
2026-05-09 15:58 -29.87124 -70.66806 39030 ft 379 kts 186°
2026-05-09 15:59 -29.92388 -70.67323 39025 ft 380 kts 186°
2026-05-09 15:59 -29.97653 -70.67841 39026 ft 379 kts 186°
2026-05-09 16:00 -30.02906 -70.68357 39025 ft 379 kts 186°
2026-05-09 16:00 -30.08125 -70.68871 39024 ft 379 kts 186°
2026-05-09 16:01 -30.13384 -70.69392 39029 ft 379 kts 186°
2026-05-09 16:01 -30.18635 -70.69910 39013 ft 378 kts 186°
2026-05-09 16:02 -30.23853 -70.70427 39015 ft 377 kts 186°
2026-05-09 16:02 -30.31700 -70.71204 39022 ft 378 kts 186°
2026-05-09 16:03 -30.36970 -70.71726 39025 ft 378 kts 186°
2026-05-09 16:03 -30.42216 -70.72247 39036 ft 379 kts 186°
2026-05-09 16:04 -30.47459 -70.72768 39035 ft 379 kts 186°
2026-05-09 16:04 -30.52745 -70.73296 39031 ft 380 kts 186°
2026-05-09 16:05 -30.57117 -70.73731 39047 ft 380 kts 186°
2026-05-09 16:05 -30.63246 -70.74334 39022 ft 379 kts 186°
2026-05-09 16:06 -30.67631 -70.74756 39029 ft 381 kts 186°
2026-05-09 16:06 -30.72905 -70.75266 39027 ft 380 kts 186°
2026-05-09 16:07 -30.78207 -70.75781 39033 ft 381 kts 186°
2026-05-09 16:07 -30.83463 -70.76292 39036 ft 381 kts 186°
2026-05-09 16:08 -30.88749 -70.76806 39037 ft 381 kts 187°
2026-05-09 16:08 -30.94022 -70.77320 39031 ft 379 kts 187°
2026-05-09 16:09 -30.99268 -70.77830 39038 ft 377 kts 187°
2026-05-09 16:09 -31.04489 -70.78340 39037 ft 375 kts 187°
2026-05-09 16:10 -31.09695 -70.78849 39042 ft 378 kts 187°
2026-05-09 16:10 -31.14962 -70.79364 39047 ft 378 kts 187°
2026-05-09 16:11 -31.20180 -70.79877 39049 ft 377 kts 187°
2026-05-09 16:11 -31.25400 -70.80388 39057 ft 377 kts 187°
2026-05-09 16:12 -31.30644 -70.80902 39059 ft 377 kts 187°
2026-05-09 16:12 -31.35839 -70.81411 39004 ft 377 kts 187°
2026-05-09 16:13 -31.38467 -70.81671 38779 ft 377 kts 187°
2026-05-09 16:13 -31.41057 -70.81928 38522 ft 376 kts 187°
2026-05-09 16:13 -31.43679 -70.82187 38001 ft 377 kts 187°
2026-05-09 16:13 -31.46274 -70.82444 37368 ft 376 kts 187°
2026-05-09 16:14 -31.48892 -70.82702 36750 ft 373 kts 187°
2026-05-09 16:14 -31.51446 -70.82954 36146 ft 371 kts 187°
2026-05-09 16:14 -31.54041 -70.83211 35429 ft 373 kts 187°
2026-05-09 16:14 -31.56609 -70.83465 34815 ft 372 kts 187°
2026-05-09 16:15 -31.59200 -70.83723 34106 ft 371 kts 187°
2026-05-09 16:15 -31.61750 -70.83980 33444 ft 369 kts 187°
2026-05-09 16:15 -31.64314 -70.84233 32781 ft 367 kts 187°
2026-05-09 16:15 -31.66841 -70.84482 32114 ft 368 kts 186°
2026-05-09 16:16 -31.69398 -70.84734 31459 ft 368 kts 186°
2026-05-09 16:16 -31.71952 -70.84986 30996 ft 363 kts 186°
2026-05-09 16:16 -31.74433 -70.85220 30536 ft 363 kts 185°
2026-05-09 16:16 -31.77052 -70.85247 30109 ft 383 kts 180°
2026-05-09 16:17 -31.79708 -70.85136 29846 ft 386 kts 180°
2026-05-09 16:17 -31.82401 -70.85039 29211 ft 388 kts 181°
2026-05-09 16:17 -31.85119 -70.84947 28404 ft 390 kts 180°
2026-05-09 16:17 -31.87824 -70.84854 27924 ft 382 kts 180°
2026-05-09 16:18 -31.90416 -70.84762 27534 ft 372 kts 180°
2026-05-09 16:18 -31.92996 -70.84670 27060 ft 365 kts 180°
2026-05-09 16:18 -31.95496 -70.84581 26592 ft 360 kts 180°
2026-05-09 16:18 -31.97996 -70.84492 26124 ft 354 kts 180°
2026-05-09 16:19 -32.00446 -70.84404 25670 ft 348 kts 181°
2026-05-09 16:19 -32.02827 -70.84321 25184 ft 344 kts 181°
2026-05-09 16:19 -32.05214 -70.84235 24766 ft 337 kts 180°
2026-05-09 16:19 -32.07532 -70.84155 24295 ft 335 kts 180°
2026-05-09 16:20 -32.09847 -70.84072 23890 ft 330 kts 180°
2026-05-09 16:20 -32.12126 -70.83991 23409 ft 326 kts 180°
2026-05-09 16:20 -32.14391 -70.83910 22976 ft 320 kts 181°
2026-05-09 16:20 -32.16614 -70.83832 22560 ft 332 kts 180°
2026-05-09 16:21 -32.19023 -70.83752 22087 ft 354 kts 180°
2026-05-09 16:21 -32.21502 -70.83666 21617 ft 361 kts 179°
2026-05-09 16:21 -32.24036 -70.83575 21116 ft 359 kts 179°
2026-05-09 16:21 -32.26507 -70.83484 20642 ft 353 kts 179°
2026-05-09 16:22 -32.28931 -70.83396 20164 ft 347 kts 179°
2026-05-09 16:22 -32.31336 -70.83310 19697 ft 341 kts 179°
2026-05-09 16:22 -32.33669 -70.83227 19243 ft 335 kts 179°
2026-05-09 16:22 -32.35998 -70.83144 18757 ft 331 kts 178°
2026-05-09 16:23 -32.38292 -70.83062 18312 ft 325 kts 178°
2026-05-09 16:23 -32.40520 -70.82983 17838 ft 320 kts 178°
2026-05-09 16:23 -32.42746 -70.82901 17389 ft 317 kts 178°
2026-05-09 16:23 -32.44919 -70.82822 16964 ft 313 kts 179°
2026-05-09 16:24 -32.47074 -70.82746 16541 ft 308 kts 178°
2026-05-09 16:24 -32.49212 -70.82670 16099 ft 305 kts 178°
2026-05-09 16:24 -32.51426 -70.82590 15668 ft 336 kts 178°
2026-05-09 16:24 -32.53802 -70.82505 15196 ft 354 kts 178°
2026-05-09 16:25 -32.56352 -70.82413 14684 ft 360 kts 178°
2026-05-09 16:25 -32.58850 -70.82322 14186 ft 362 kts 178°
2026-05-09 16:25 -32.61373 -70.82231 13608 ft 361 kts 178°
2026-05-09 16:25 -32.63847 -70.82141 13152 ft 354 kts 178°
2026-05-09 16:26 -32.66312 -70.82049 12645 ft 351 kts 178°
2026-05-09 16:26 -32.68716 -70.81959 12176 ft 347 kts 178°
2026-05-09 16:26 -32.71136 -70.81871 11691 ft 344 kts 178°
2026-05-09 16:26 -32.73510 -70.81784 11215 ft 342 kts 179°
2026-05-09 16:27 -32.75897 -70.81696 10734 ft 340 kts 179°
2026-05-09 16:27 -32.78242 -70.81609 10239 ft 338 kts 179°
2026-05-09 16:27 -32.80541 -70.81525 10065 ft 320 kts 179°
2026-05-09 16:27 -32.82734 -70.81444 9704 ft 309 kts 179°
2026-05-09 16:28 -32.84848 -70.81369 9296 ft 301 kts 179°
2026-05-09 16:28 -32.86934 -70.81292 9145 ft 300 kts 179°
2026-05-09 16:28 -32.88993 -70.81217 9013 ft 298 kts 179°
2026-05-09 16:28 -32.91061 -70.81142 8860 ft 295 kts 179°
2026-05-09 16:29 -32.93101 -70.81271 8504 ft 295 kts 188°
2026-05-09 16:29 -32.95140 -70.81593 8131 ft 294 kts 188°
2026-05-09 16:29 -32.97172 -70.81903 7765 ft 293 kts 188°
2026-05-09 16:29 -32.99191 -70.82207 7395 ft 291 kts 187°
2026-05-09 16:30 -33.01164 -70.82370 7007 ft 283 kts 178°
2026-05-09 16:30 -33.03123 -70.82256 6603 ft 280 kts 177°
2026-05-09 16:30 -33.05075 -70.82145 6181 ft 280 kts 177°
2026-05-09 16:30 -33.06984 -70.82038 5757 ft 274 kts 177°
2026-05-09 16:31 -33.08863 -70.81930 5353 ft 267 kts 177°
2026-05-09 16:31 -33.10668 -70.81825 5204 ft 250 kts 177°
2026-05-09 16:31 -33.12357 -70.81729 5086 ft 235 kts 177°
2026-05-09 16:31 -33.13919 -70.81639 5004 ft 219 kts 177°
2026-05-09 16:32 -33.15404 -70.81555 5004 ft 206 kts 177°
2026-05-09 16:32 -33.16334 -70.81501 5014 ft 196 kts 177°
2026-05-09 16:32 -33.18095 -70.81394 5010 ft 192 kts 177°
2026-05-09 16:32 -33.19405 -70.81315 4969 ft 182 kts 177°
2026-05-09 16:33 -33.20645 -70.81251 4790 ft 178 kts 178°
2026-05-09 16:33 -33.21873 -70.81185 4534 ft 178 kts 178°
2026-05-09 16:33 -33.23108 -70.81119 4315 ft 179 kts 177°
2026-05-09 16:33 -33.24361 -70.81049 4074 ft 179 kts 177°
2026-05-09 16:34 -33.25596 -70.80988 3836 ft 177 kts 178°
2026-05-09 16:34 -33.26806 -70.80923 3607 ft 171 kts 178°
2026-05-09 16:34 -33.27968 -70.80860 3389 ft 160 kts 178°
2026-05-09 16:34 -33.29042 -70.80805 3178 ft 149 kts 178°
2026-05-09 16:35 -33.30028 -70.80751 2986 ft 138 kts 177°
2026-05-09 16:35 -33.30985 -70.80701 2809 ft 138 kts 178°
2026-05-09 16:35 -33.31940 -70.80650 2631 ft 138 kts 177°
2026-05-09 16:35 -33.32898 -70.80599 2443 ft 138 kts 178°
2026-05-09 16:36 -33.33879 -70.80547 2259 ft 141 kts 178°
2026-05-09 16:36 -33.36852 -70.80390 1686 ft 142 kts 178°
2026-05-09 16:37 -33.37830 -70.80341 1573 ft 130 kts 177°
2026-05-09 16:37 -33.38535 -70.80304 1573 ft 82 kts 177°
2026-05-09 16:37 -33.39012 -70.80277 1573 ft 56 kts 177°
2026-05-09 16:37 -33.39220 -70.80253 1572 ft 28 kts 168°
2026-05-09 16:38 -33.39413 -70.80136 1568 ft 31 kts 147°
2026-05-09 16:38 -33.39513 -70.80049 1565 ft 22 kts 134°
2026-05-09 16:38 -33.39524 -70.79949 1565 ft 8 kts 82°
2026-05-09 16:38 -33.39545 -70.79936 1565 ft 8 kts 178°
2026-05-09 16:39 -33.39623 -70.79938 1565 ft 14 kts 180°
2026-05-09 16:39 -33.39739 -70.79932 1565 ft 18 kts 177°
2026-05-09 16:39 -33.39842 -70.79901 1565 ft 12 kts 113°
2026-05-09 16:39 -33.39807 -70.79823 1564 ft 12 kts
2026-05-09 16:40 -33.39747 -70.79827 1564 ft 1 kts 358°
2026-05-09 16:40 -33.39742 -70.79827 1564 ft 0 kts 358°